Regional Weather Roundup
Issued by NWS Sioux Falls, SD

Home | Current Version | Previous Version | Graphics & Text | Print | Product List | Glossary On
Versions: 1 2 3 4 5 6 7 8 9 10 11 12 13 14 15 16 17 18 19 20 21 22 23 24 25 26 27 28 29 30 31 32 33 34 35 36 37 38 39 40 41 42 43 44 45 46 47 48 49 50
000
ASUS43 KFSD 301310
RWRFSD

WEATHER ROUNDUP FOR SE SOUTH DAKOTA/SW MINNESOTA/NW IOWA
NATIONAL WEATHER SERVICE SIOUX FALLS SD
800 AM CDT SAT AUG 30 2014

NOTE: "FAIR" INDICATES FEW OR NO CLOUDS BELOW 12,000 FEET WITH NO
SIGNIFICANT WEATHER AND OR OBSTRUCTIONS TO VISIBILITY.


SDZ038>040-050-052>070-301400-
SOUTHEAST SOUTH DAKOTA

CITY           SKY/WX    TMP DP  RH WIND       PRES   REMARKS
CHAMBERLAIN    FOG       54  54 100 CALM      29.98S VSB<1/4
HURON          CLOUDY    60  57  89 N8        29.94S
MADISON        CLOUDY    59  59 100 N7        29.93S
MITCHELL       CLOUDY    60  58  92 N8        29.94F
SIOUX FALLS    CLOUDY    63  62  97 NW8       29.92R
WINNER         FOG       54  54 100 SW5       29.99R VSB<1/4
YANKTON        CLOUDY    59  57  94 NW13      29.95R
$$

MNZ071-072-080-081-089-090-097-098-301400-
SOUTHWEST MINNESOTA

CITY           SKY/WX    TMP DP  RH WIND       PRES   REMARKS
FAIRMONT       CLOUDY    63  55  77 NW8       29.86S
JACKSON        CLOUDY    64  63  94 NW9       29.89R FOG
LUVERNE        CLOUDY    64  63  94 N3        29.91R
MARSHALL       CLOUDY    61  57  88 NW9       29.89S
MONTEVIDEO     CLOUDY    61  61 100 N8        29.90R
PIPESTONE      CLOUDY    63  61  94 NW7       29.92R
REDWOOD FALLS  CLOUDY    63  63 100 NW9       29.87R FOG
TRACY          FOG       62  61  97 NW6       29.90S VSB 1/4
WINDOM         FOG       64  63  94 W8        29.89R VSB 3/4
WORTHINGTON    CLOUDY    64  63  94 NW9       29.92R
$$

IAZ001>003-012>014-020>022-031-032-NEZ013-014-SDZ071-301400-
NORTHWEST IOWA

CITY           SKY/WX    TMP DP  RH WIND       PRES   REMARKS
CHEROKEE       CLOUDY    65  65 100 CALM      29.91R FOG
DENISON        CLOUDY    64  64 100 NW6       29.90R FOG
ESTHERVILLE    PTSUNNY   65  64  97 NW6       29.87S
LE MARS        CLOUDY    64  64 100 W8        29.92S FOG
ORANGE CITY    CLOUDY    66  64  94 NW7       29.92R
SHELDON        CLOUDY    64  64 100 NW5       29.90R FOG
SIOUX CITY     CLOUDY    65  63  93 NW8       29.93R FOG
SPENCER        PTSUNNY   65  63  93 W5        29.89R FOG
STORM LAKE     FOG       64  64 100 W8        29.90R VSB<1/4
$$

ABBREVIATIONS USED IN REMARKS
   TC - TEMPERATURE IN CELSIUS
  WCI - WIND CHILL INDEX
   HX - HEAT INDEX
  VSB - VISIBILITY



USA.gov is the U.S. government's official web portal to all federal, state and local government web resources and services.